Back to catalog

NOAA 16 DEB

AliveSSO
NORAD 41266·DEBRIS·🇺🇸 United States

Launched Sep 21, 2000 from Vandenberg Space Force Base

Loading…

Next Passes (next 24 hours)

TLE

FreshSource: Space-Track

Epoch: Sep 13, 2026, 11:23 UTC

1 41266U 00055FS  26256.47487165  .00002025  00000-0  82553-3 0  9997
2 41266  98.6437 321.7215 0005861 131.6715 228.4969 14.28495934552891

Track NOAA 16 DEB in real time with AllMySat

Download on the App Store